Flag for France Weather past 2 weeks in Dijon, France

Now
72 °F

Clear.


Feels Like: 75 °F
Forecast: 65 / 82 °F
Wind: 6 mph from North

Location: Dijon Airport

Current Time: Jul 23, 2014 at 11:59:09 PM

Latest Report: Jul 23, 2014 at 11:30 PM


Visibility: N/A

Pressure: 29.89 "Hg

Humidity: 69%

Dew point: 61 °F

Location of DijonLocation

Historic Weather in Dijon — Graph

°F

Dijon temperature yesterday

Maximum temperature yesterday: 70 °F (at 5:30 PM)
Minimum temperature yesterday: 63 °F (at 5:30 AM)
Average temperature yesterday: 66 °F

Past Weeks' High & Low Weather Summary

 TemperatureHumidityPressure
High93 °F (Jul 18, 3:00 PM)100% (Jul 10, 2:00 AM)30.18 "Hg (Jul 10, 2:00 AM)
Low50 °F (Jul 15, 3:30 AM)28% (Jul 18, 3:30 PM)29.83 "Hg (Jul 10, 4:00 AM)
Average68 °F73%30.00 "Hg
* Reported Jul 8 11:00 PM — Jul 23 11:00 PM, Dijon, Weather by CustomWeather, © 2014

Note: Actual official high and low records may vary slightly from our data, if they occured in-between our weather recording intervals... More about our weather records

Advertising

Dijon weather history for previous 24 hours

 ConditionsComfort  
Time TempWeatherWind HumidityBarometerVisibility
11:00 PM
Jul 23
72 °FClear.7 mph69%29.89 "HgN/A
10:30 PM72 °FClear.7 mph69%29.89 "HgN/A
10:00 PM73 °FClear.6 mph65%29.89 "HgN/A
9:30 PM75 °FClear.7 mph61%29.89 "HgN/A
9:00 PM77 °FClear.8 mph57%29.89 "HgN/A
8:30 PM79 °FClear.10 mph54%29.89 "HgN/A
8:00 PM79 °FClear.13 mph54%29.89 "HgN/A
7:30 PM81 °FClear.15 mph51%29.86 "HgN/A
7:00 PM81 °FClear.9 mph48%29.89 "HgN/A
6:30 PM81 °FClear.10 mph51%29.86 "HgN/A
6:00 PM81 °FClear.13 mph48%29.86 "HgN/A
5:30 PM82 °FClear.10 mph45%29.89 "HgN/A
5:00 PM82 °FClear.12 mph45%29.89 "HgN/A
4:30 PM84 °FClear.13 mph45%29.89 "HgN/A
4:00 PM84 °FClear.13 mph45%29.89 "HgN/A
3:00 PM82 °FClear.12 mph45%29.92 "HgN/A
1:30 PM82 °FClear.13 mph48%29.92 "HgN/A
1:00 PM81 °FClear.10 mph54%29.92 "HgN/A
12:30 PM79 °FClear.10 mph58%29.92 "HgN/A
12:00 PM77 °FClear.9 mph61%29.95 "HgN/A
11:30 AM77 °FClear.8 mph65%29.95 "HgN/A
11:00 AM75 °FClear.8 mph69%29.95 "HgN/A
7:00 AM66 °FClear.9 mph88%29.98 "HgN/A
6:30 AM66 °FClear.8 mph88%29.98 "HgN/A
6:00 AM66 °FClear.8 mph88%29.98 "HgN/A
5:30 AM66 °FClear.9 mph88%29.98 "HgN/A
5:00 AM66 °FClear.8 mph88%29.98 "HgN/A
4:30 AM66 °FClear.9 mph88%29.98 "HgN/A
4:00 AM68 °FClear.9 mph83%29.98 "HgN/A
3:30 AM68 °FClear.10 mph83%29.98 "HgN/A
3:00 AM68 °FClear.10 mph83%29.98 "HgN/A
2:30 AM68 °FClear.8 mph83%29.98 "HgN/A
2:00 AM68 °FClear.8 mph83%30.01 "HgN/A
1:00 AM68 °FClear.12 mph88%30.01 "HgN/A
Weather by CustomWeather, © 2014

See weather overviewHow to use our weather pages